This is the latest recevied weather packets stored in our database for station/object DC1MPP-9. If no packets are shown the sender has not sent any weather packets the latest 10 day(s).
| Time | Temp. | Humidity | Pressure | Rain* | Wind** | Luminosity | Snow |
|---|---|---|---|---|---|---|---|
| 1777883373 | 21.67° C | 39% | 958 hPa | - | - | - | - |
| 1777883132 | 22.22° C | 42% | 958 hPa | - | - | - | - |
| 1777882891 | 21.67° C | 39% | 958 hPa | - | - | - | - |
| 1777882650 | 21.11° C | 42% | 958 hPa | - | - | - | - |
| 1777882409 | 21.11° C | 46% | 958 hPa | - | - | - | - |
| 1777882168 | 21.11° C | 44% | 958 hPa | - | - | - | - |
| 1777881927 | 21.11° C | 43% | 958 hPa | - | - | - | - |
| 1777881686 | 21.11° C | 43% | 958 hPa | - | - | - | - |
| 1777881445 | 21.11° C | 43% | 958 hPa | - | - | - | - |
| 1777881204 | 21.11° C | 43% | 958 hPa | - | - | - | - |
| 1777880963 | 20.56° C | 42% | 958 hPa | - | - | - | - |
| 1777880721 | 20.56° C | 46% | 958 hPa | - | - | - | - |
| 1777880480 | 20.56° C | 43% | 958 hPa | - | - | - | - |
| 1777880239 | 21.11° C | 41% | 958 hPa | - | - | - | - |
| 1777879998 | 20.56° C | 45% | 958 hPa | - | - | - | - |
| 1777879757 | 20.56° C | 43% | 958 hPa | - | - | - | - |
| 1777879516 | 20.56° C | 42% | 958 hPa | - | - | - | - |
| 1777879275 | 20.56° C | 47% | 958 hPa | - | - | - | - |
| 1777879034 | 20.56° C | 44% | 958 hPa | - | - | - | - |
| 1777878793 | 20.56° C | 45% | 958 hPa | - | - | - | - |
| 1777878552 | 20.56° C | 46% | 958 hPa | - | - | - | - |
| 1777878311 | 20.56° C | 45% | 958 hPa | - | - | - | - |
| 1777878070 | 20° C | 47% | 958 hPa | - | - | - | - |
| 1777877829 | 20° C | 47% | 958 hPa | - | - | - | - |
| 1777877588 | 19.44° C | 44% | 958 hPa | - | - | - | - |
* Rain since midnight (hover to see other rain measurements)
** Current wind speed in m/s (hover to see current wind gust speed)